Fayetteville, GA

8:01 AM EDT on August 26, 2016 (GMT -0400)
Peachtree City-Falcon

Weather History for KFFC - April, 2014

Change the Weather History Date:

Friday, April 18, 2014

  Actual Average Record
Temperature  
Mean Temperature 55 °F 61 °F  
Max Temperature 59 °F 75 °F 88 °F (2002)
Min Temperature 50 °F 48 °F 30 °F (1997)
Degree Days  
Heating Degree Days 10 5  
Month to date heating degree days 114 121  
Since 1 July heating degree days 3060 2873  
Cooling Degree Days 0 1  
Month to date cooling degree days 10 12  
Year to date cooling degree days 10 17  
Growing Degree Days 4 (Base 50)    
Moisture  
Dew Point 46 °F    
Average Humidity 70    
Maximum Humidity 93    
Minimum Humidity 47    
Precipitation  
Precipitation 1.25 in 0.12 in 1.25 in (2014)
Month to date precipitation 4.57 2.47  
Year to date precipitation 14.96 16.68  
Sea Level Pressure  
Sea Level Pressure 30.20 in    
Wind  
Wind Speed 7 mph (NE)    
Max Wind Speed 13 mph    
Max Gust Speed 20 mph    
Visibility 6 miles    
Events Rain    
T = Trace of Precipitation, MM = Missing Value Source: NWS Daily Summary

Daily Weather History Graph

Daily Weather History Graph

Search for Another Location

Airport or City:

Trip Planner

Search our weather history database for the weather conditions in past years. The results will help you decide how hot, cold, wet, or windy it might be!

Date:

Astronomy

Apr. 18, 2014 Rise Set
Actual Time 7:04 AM EDT 8:11 PM EDT
Civil Twilight 6:38 AM EDT 8:36 PM EDT
Nautical Twilight 6:08 AM EDT 9:07 PM EDT
Astronomical Twilight 5:36 AM EDT 9:39 PM EDT
Moon 11:48 PM EDT (4/18) 9:32 AM EDT (4/18)
Length of Visible Light 13h 58m
Length of Day
13h 06m
Waning Gibbous, 87% of the Moon is Illuminated
Apr 18
Waning Gibbous
Apr 22
Last Quarter
Apr 29
New
May 6
First Quarter
May 14
Full

Hourly Weather History & Observations

Time (EDT) Temp. Dew Point Humidity Pressure Visibility Wind Dir Wind Speed Gust Speed Precip Events Conditions
12:53 AM 57.9 °F 39.0 °F 49% 30.32 in 10.0 mi ESE 6.9 mph - N/A   Overcast
1:53 AM 57.9 °F 37.9 °F 47% 30.31 in 10.0 mi East 5.8 mph - N/A   Mostly Cloudy
2:53 AM 57.0 °F 37.9 °F 49% 30.28 in 10.0 mi Variable 5.8 mph - N/A   Mostly Cloudy
3:53 AM 57.0 °F 37.9 °F 49% 30.27 in 10.0 mi East 8.1 mph - N/A   Overcast
4:53 AM 57.0 °F 37.9 °F 49% 30.27 in 10.0 mi East 8.1 mph - N/A   Overcast
5:53 AM 55.9 °F 39.0 °F 53% 30.29 in 10.0 mi Variable 4.6 mph - N/A   Overcast
6:53 AM 55.0 °F 39.0 °F 55% 30.27 in 10.0 mi East 6.9 mph - N/A   Overcast
7:53 AM 54.0 °F 41.0 °F 62% 30.29 in 10.0 mi East 6.9 mph - 0.00 in   Overcast
8:53 AM 51.1 °F 45.0 °F 80% 30.30 in 8.0 mi East 5.8 mph - 0.00 in Rain Light Rain
9:53 AM 51.1 °F 46.0 °F 83% 30.30 in 5.0 mi Variable 4.6 mph - 0.02 in Rain Light Rain
10:53 AM 51.1 °F 48.0 °F 89% 30.31 in 6.0 mi East 5.8 mph - 0.03 in Rain Light Rain
11:53 AM 51.1 °F 48.0 °F 89% 30.29 in 4.0 mi Variable 5.8 mph - 0.06 in Rain Light Rain
12:53 PM 53.1 °F 48.9 °F 86% 30.25 in 8.0 mi Variable 6.9 mph - 0.01 in Rain Light Rain
1:53 PM 53.1 °F 48.9 °F 86% 30.22 in 6.0 mi ENE 8.1 mph - 0.02 in Rain Light Rain
2:53 PM 52.0 °F 48.9 °F 89% 30.19 in 5.0 mi NE 8.1 mph - 0.05 in Rain Light Rain
3:53 PM 52.0 °F 48.9 °F 89% 30.17 in 6.0 mi NNE 8.1 mph - 0.03 in Rain Light Rain
4:53 PM 52.0 °F 48.9 °F 89% 30.16 in 3.0 mi NNE 6.9 mph - 0.08 in Rain Light Rain
5:17 PM 52.0 °F 48.9 °F 89% 30.16 in 2.5 mi NE 5.8 mph - 0.03 in Rain Rain
5:30 PM 51.1 °F 48.9 °F 92% 30.13 in 2.0 mi NNE 8.1 mph - 0.07 in Rain Rain
5:43 PM 51.1 °F 48.9 °F 92% 30.13 in 3.0 mi NNE 5.8 mph - 0.09 in Rain Rain
5:53 PM 51.1 °F 48.9 °F 92% 30.14 in 3.0 mi Variable 5.8 mph - 0.11 in Rain Rain
6:12 PM 51.1 °F 48.9 °F 92% 30.14 in 3.0 mi Variable 3.5 mph - 0.04 in Rain Rain
6:20 PM 51.1 °F 48.9 °F 92% 30.14 in 2.5 mi ENE 4.6 mph - 0.06 in Rain Rain
6:37 PM 51.1 °F 48.9 °F 92% 30.14 in 1.5 mi Variable 3.5 mph - 0.14 in Rain Heavy Rain
6:49 PM 51.8 °F 48.2 °F 88% 30.14 in 2.0 mi Variable 3.5 mph - 0.17 in Rain Rain
6:53 PM 51.1 °F 48.9 °F 92% 30.15 in 2.5 mi NE 5.8 mph - 0.19 in Rain Rain
7:00 PM 51.1 °F 48.9 °F 92% 30.15 in 2.0 mi ENE 4.6 mph - 0.02 in Rain Rain
8:04 PM 51.1 °F 48.0 °F 89% 30.16 in 4.0 mi NNE 6.9 mph - 0.03 in Rain Rain
8:26 PM 51.1 °F 48.0 °F 89% 30.15 in 4.0 mi North 8.1 mph - 0.11 in Rain Rain
8:38 PM 51.1 °F 48.9 °F 92% 30.16 in 4.0 mi North 8.1 mph - 0.14 in Rain Rain
8:53 PM 50.0 °F 48.0 °F 93% 30.15 in 4.0 mi North 9.2 mph - 0.18 in Rain Rain
9:13 PM 50.0 °F 48.0 °F 93% 30.15 in 4.0 mi North 9.2 mph - 0.09 in Rain Rain
9:53 PM 50.0 °F 48.0 °F 93% 30.17 in 7.0 mi North 9.2 mph 17.3 mph 0.15 in Rain Light Rain
11:37 PM 50.0 °F 46.9 °F 89% 30.11 in 10.0 mi North 8.1 mph - 0.02 in   Overcast
11:53 PM 50.0 °F 48.0 °F 93% 30.13 in 10.0 mi Variable 4.6 mph - 0.02 in Rain Light Rain